Location: El Centro
(32.7920°N, 115.5620°W)
Time: 07:02:42
(UTC-07:00)

Amateur Radio Satellites - All Passes

Search period start: 23 August 2017 06:32
Search period end: 24 August 2017 06:32
Location: El Centro, 32.7920°N, 115.5620°W

Satellite Date Start Highest point End Downlink Frequencies (MHz)
Time Altitude Azimuth
LilacSat-2 23 Aug 06:34:17 06:38:08 61° 100° (E) 06:41:58 437.200
XW-2D 23 Aug 06:35:09 06:38:58 60° 100° (E) 06:42:45 145.860 - 145.880
XW-2B 23 Aug 06:46:15 06:50:07 83° 102° (ESE) 06:53:57 145.730 - 145.750
CUTE-I 23 Aug 06:50:03 06:55:19 63° 102° (ESE) 07:00:34 437.470
CUTE 1.7 + AOD 2 23 Aug 07:03:15 07:06:21 19° 95° (E) 07:09:25 437.475
XW-2C 23 Aug 07:05:35 07:09:19 51° 284° (WNW) 07:13:03 145.795 - 145.815
STRAND 1 23 Aug 07:11:32 07:16:34 60° 74° (ENE) 07:21:35 437.568
XW-2F 23 Aug 07:15:37 07:19:13 39° 286° (WNW) 07:22:48 145.980 - 146.000
PCSat 23 Aug 07:27:33 07:32:50 51° 62° (ENE) 07:38:05 145.827
UWE-3 23 Aug 07:30:46 07:31:42 11° 93° (E) 07:32:38 435.000/436.395/437.385
Tancredo 1 23 Aug 07:34:38 07:37:31 81° 136° (SE) 07:40:25 437.200
SO-50 23 Aug 07:34:55 07:39:24 53° 59° (ENE) 07:43:56 436.795
KAITUO 1B 23 Aug 07:36:29 07:39:43 27° 287° (WNW) 07:42:56 145.475/437.950
FO-29 23 Aug 07:37:04 07:39:52 13° 62° (ENE) 07:42:34 435.910
CUBEBUG 2 23 Aug 07:41:13 07:44:52 27° 97° (E) 07:48:35 437.445
SEEDS 23 Aug 07:45:09 07:49:06 37° 98° (E) 07:53:01 437.485
O/OREOS (USA 219) 23 Aug 07:49:51 07:51:59 13° 99° (E) 07:54:06 437.305
ISS 23 Aug 07:53:43 07:56:22 23° 129° (SE) 07:59:01 437.550
nSIGHT-1 23 Aug 07:58:18 08:01:08 27° 130° (SE) 08:03:59 .
ZACube-1 23 Aug 08:03:06 08:05:28 14° 94° (E) 08:07:51 437.345
NUDT-PHONESAT 23 Aug 08:06:38 08:08:07 12° 291° (WNW) 08:09:36 437.300
HO-68 23 Aug 08:08:04 08:15:16 89° 94° (E) 08:22:26 435.675
AO-73 23 Aug 08:21:45 08:25:06 21° 96° (E) 08:28:30 145.935
AAUSAT CUBESAT 2 23 Aug 08:22:22 08:26:22 44° 99° (E) 08:30:19 437.432
XW-2A 23 Aug 08:24:00 08:27:23 73° 283° (WNW) 08:30:47 145.665 - 145.685
NO-84 23 Aug 08:29:16 08:32:23 76° 231° (SW) 08:35:46 435.350 FM
CUTE-I 23 Aug 08:32:15 08:34:46 14° 296° (WNW) 08:37:17 437.470
CUTE 1.7 + AOD 2 23 Aug 08:38:28 08:42:07 27° 288° (WNW) 08:45:44 437.475
TIGRISAT 23 Aug 08:48:49 08:50:06 11° 67° (ENE) 08:51:22 435.000
STRAND 1 23 Aug 08:54:07 08:56:02 12° 267° (W) 08:57:57 437.568
RS-15 23 Aug 09:02:06 09:11:15 26° 102° (ESE) 09:20:30 29.354- 29.394
Oscar 11 23 Aug 09:03:00 09:07:13 47° 100° (E) 09:11:25 .
UWE-3 23 Aug 09:04:09 09:08:19 50° 285° (WNW) 09:12:35 435.000/436.395/437.385
PRISM 23 Aug 09:04:56 09:06:46 13° 67° (ENE) 09:08:36 437.425
JUGNU 23 Aug 09:08:00 09:11:52 18° 169° (SSE) 09:15:42 437.505
PCSat 23 Aug 09:12:25 09:15:44 17° 256° (WSW) 09:19:03 145.827
FO-29 23 Aug 09:16:22 09:24:02 81° 75° (ENE) 09:31:01 435.910
SO-50 23 Aug 09:17:27 09:19:23 12° 252° (WSW) 09:21:18 436.795
CUBEBUG 2 23 Aug 09:18:12 09:21:17 20° 289° (WNW) 09:24:24 437.445
SEEDS 23 Aug 09:22:05 09:24:25 15° 291° (WNW) 09:26:43 437.485
O/OREOS (USA 219) 23 Aug 09:26:43 09:30:55 41° 293° (WNW) 09:35:10 437.305
ISS 23 Aug 09:29:57 09:32:45 25° 323° (NW) 09:35:33 437.550
nSIGHT-1 23 Aug 09:34:54 09:37:30 21° 324° (NW) 09:40:05 .
ZACube-1 23 Aug 09:37:47 09:41:48 38° 286° (WNW) 09:45:54 437.345
UNISAT 6 23 Aug 09:47:43 09:52:01 67° 76° (ENE) 09:56:16 437.425
Max Valier Satellite 23 Aug 09:49:39 09:52:44 24° 97° (E) 09:55:49 145.860
AO-73 23 Aug 09:57:38 10:01:14 26° 288° (WNW) 10:04:53 145.935
HO-68 23 Aug 09:58:29 10:02:00 14° 301° (WNW) 10:05:32 435.675
AAUSAT CUBESAT 2 23 Aug 09:59:50 10:01:21 12° 293° (WNW) 10:02:53 437.432
TIGRISAT 23 Aug 10:22:08 10:26:19 49° 260° (W) 10:30:29 435.000
EO-88 23 Aug 10:37:00 10:40:42 89° 126° (SE) 10:44:21 145.990 - 145.960
DELFI C3 23 Aug 10:37:35 10:41:25 49° 285° (WNW) 10:45:13 145.870
PRISM 23 Aug 10:37:40 10:41:36 41° 260° (W) 10:45:34 437.425
Oscar 11 23 Aug 10:41:10 10:42:52 12° 293° (WNW) 10:44:34 .
JUGNU 23 Aug 10:55:40 11:00:16 23° 179° (S) 11:04:50 437.505
FO-29 23 Aug 11:05:11 11:09:21 16° 267° (W) 11:13:22 435.910
RS-15 23 Aug 11:10:18 11:22:28 76° 299° (WNW) 11:34:54 29.354- 29.394
SRMSAT 23 Aug 11:13:46 11:16:37 14° 165° (SSE) 11:19:29 437.500
M-CUBED/EXP-1 PRIME 23 Aug 11:14:14 11:18:41 69° 72° (ENE) 11:23:19 437.505
AIST 2D 23 Aug 11:16:30 11:19:57 79° 79° (E) 11:23:28 435.315
NANOSAT C BR1 23 Aug 11:19:02 11:22:33 27° 72° (ENE) 11:26:04 145.865
Max Valier Satellite 23 Aug 11:24:02 11:26:20 16° 289° (WNW) 11:28:37 145.860
POLYITAN 1 23 Aug 11:26:05 11:29:56 37° 74° (ENE) 11:33:48 437.675
EO-79 23 Aug 11:40:45 11:44:53 57° 75° (ENE) 11:49:00 145.935-145.965
QB50P2 23 Aug 11:41:04 11:45:13 65° 76° (ENE) 11:49:24 145.880/145.840
BUGSAT 1 23 Aug 11:57:35 12:00:10 16° 69° (ENE) 12:02:43 437.445
LO-87 23 Aug 11:57:39 12:01:09 69° 283° (WNW) 12:04:39 145.935 - 145.965
ESTCUBE 1 23 Aug 12:05:24 12:09:57 74° 102° (ESE) 12:14:27 437.505/2401.250
DUCHIFAT 1 23 Aug 12:07:11 12:11:21 84° 258° (WSW) 12:15:32 145.980
Gurwin Techsat 1B 23 Aug 12:30:52 12:33:20 13° 64° (ENE) 12:35:47 435.225
Oscar 19 23 Aug 12:32:17 12:36:07 22° 68° (ENE) 12:39:59 437.125/150
JUGNU 23 Aug 12:44:29 12:48:40 20° 189° (S) 12:52:50 437.505
NANOSAT C BR1 23 Aug 12:55:15 12:58:11 19° 264° (W) 13:01:09 145.865
SRMSAT 23 Aug 13:00:45 13:05:08 21° 174° (S) 13:09:31 437.500
POLYITAN 1 23 Aug 13:03:44 13:05:48 13° 266° (W) 13:07:53 437.675
AO-85 23 Aug 13:04:47 13:07:52 18° 54° (NE) 13:11:05 145.980
BEESAT 3 23 Aug 13:08:11 13:11:35 27° 56° (NE) 13:14:57 437.485
SPROUT 23 Aug 13:21:21 13:25:30 60° 285° (WNW) 13:29:41 437.525
RS-15 23 Aug 13:28:24 13:37:23 23° 324° (NW) 13:46:25 29.354- 29.394
DX 1 23 Aug 13:28:29 13:32:14 28° 98° (E) 13:35:56 434.975-435.025
BEESAT 2 23 Aug 13:29:30 13:31:57 15° 52° (NE) 13:34:21 435.950
BUGSAT 1 23 Aug 13:31:39 13:35:15 29° 262° (W) 13:38:49 437.445
VELOX 1 23 Aug 13:35:56 13:40:14 54° 285° (WNW) 13:44:30 145.980
50 SAT 23 Aug 13:49:29 13:52:51 87° 105° (ESE) 13:56:11 437.505
Tancredo 1 23 Aug 14:02:31 14:02:58 10° 31° (NNE) 14:03:26 437.200
Gurwin Techsat 1B 23 Aug 14:07:24 14:12:39 64° 259° (WSW) 14:17:57 435.225
Oscar 19 23 Aug 14:10:26 14:15:08 36° 262° (W) 14:19:54 437.125/150
YUBILEINY 23 Aug 14:26:40 14:33:04 23° 83° (E) 14:39:26 435.215
AO-7 23 Aug 14:34:51 14:42:33 43° 65° (ENE) 14:50:14 .
JUGNU 23 Aug 14:35:40 14:37:00 11° 198° (SSW) 14:38:19 437.505
UKube-1 23 Aug 14:36:11 14:40:28 67° 285° (WNW) 14:44:42 .
BEESAT 23 Aug 14:39:58 14:41:06 11° 93° (E) 14:42:13 436.000
AO-85 23 Aug 14:44:09 14:48:20 40° 246° (WSW) 14:52:50 145.980
BEESAT 3 23 Aug 14:46:10 14:48:56 18° 250° (WSW) 14:51:39 437.485
SRMSAT 23 Aug 14:49:16 14:53:42 22° 185° (S) 14:58:08 437.500
DX 1 23 Aug 15:05:03 15:08:10 20° 291° (WNW) 15:11:18 434.975-435.025
BEESAT 2 23 Aug 15:06:04 15:09:49 38° 247° (WSW) 15:13:30 435.950
ITUPSAT 1 23 Aug 15:13:45 15:17:49 27° 97° (E) 15:21:52 437.325
MOZHAYETS 4 23 Aug 15:31:36 15:35:56 38° 99° (E) 15:40:14
Tancredo 1 23 Aug 15:35:33 15:38:25 65° 226° (SW) 15:41:15 437.200
ITAMSAT 1 23 Aug 15:35:56 15:41:09 87° 256° (WSW) 15:46:22 435.822/435.867
RS-15 23 Aug 15:54:58 15:57:10 11° 1° (N) 15:59:20 29.354- 29.394
ISS 23 Aug 16:00:44 16:03:50 40° 40° (NE) 16:06:55 437.550
CUBESAT XI-V 23 Aug 16:01:05 16:03:41 15° 93° (E) 16:06:15 437.345
nSIGHT-1 23 Aug 16:04:59 16:08:07 48° 41° (NE) 16:11:15 .
BEESAT 23 Aug 16:14:28 16:19:09 59° 286° (WNW) 16:23:49 436.000
YUBILEINY 23 Aug 16:20:25 16:29:05 62° 279° (W) 16:37:46 435.215
AO-7 23 Aug 16:27:40 16:35:13 37° 260° (W) 16:42:48 .
SRMSAT 23 Aug 16:39:04 16:42:13 15° 194° (SSW) 16:45:22 437.500
ITUPSAT 1 23 Aug 16:51:38 16:55:28 25° 291° (WNW) 16:59:18 437.325
KKS-1 23 Aug 16:57:33 17:01:11 25° 97° (E) 17:04:47 437.445
MOZHAYETS 4 23 Aug 17:09:48 17:12:43 17° 292° (WNW) 17:15:38
DOVE 4 23 Aug 17:10:26 17:15:38 61° 76° (ENE) 17:20:45 437.250
LilacSat-2 23 Aug 17:13:00 17:15:17 16° 70° (ENE) 17:17:36 437.200
XW-2D 23 Aug 17:13:18 17:15:29 15° 70° (ENE) 17:17:41 145.860 - 145.880
XW-2B 23 Aug 17:23:49 17:26:34 20° 71° (ENE) 17:29:20 145.730 - 145.750
STARS 23 Aug 17:27:26 17:30:43 21° 96° (E) 17:33:59 437.465
CUBESAT XI-V 23 Aug 17:36:44 17:41:11 43° 286° (WNW) 17:45:37 437.345
ISS 23 Aug 17:38:26 17:40:00 13° 234° (SW) 17:41:35 437.550
XW-2C 23 Aug 17:42:18 17:45:44 35° 74° (ENE) 17:49:11 145.795 - 145.815
nSIGHT-1 23 Aug 17:43:27 17:44:08 10° 235° (SW) 17:44:48 .
XW-2F 23 Aug 17:51:38 17:55:11 44° 75° (ENE) 17:58:47 145.980 - 146.000
O/OREOS (USA 219) 23 Aug 18:03:12 18:05:37 14° 60° (ENE) 18:08:02 437.305
CUTE-I 23 Aug 18:07:17 18:12:36 67° 75° (ENE) 18:17:54 437.470
RS-15 23 Aug 18:07:24 18:16:36 24° 38° (NE) 18:25:24 29.354- 29.394
KAITUO 1B 23 Aug 18:11:10 18:14:50 66° 77° (ENE) 18:18:32 145.475/437.950
HO-68 23 Aug 18:31:49 18:38:26 43° 68° (ENE) 18:45:04 435.675
SEEDS 23 Aug 18:33:36 18:36:00 15° 69° (ENE) 18:38:26 437.485
KKS-1 23 Aug 18:34:06 18:37:34 23° 290° (WNW) 18:41:03 437.445
CUBEBUG 2 23 Aug 18:36:37 18:38:40 13° 69° (ENE) 18:40:42 437.445
NUDT-PHONESAT 23 Aug 18:39:08 18:42:41 48° 260° (W) 18:46:15 437.300
LilacSat-2 23 Aug 18:46:08 18:49:18 26° 263° (W) 18:52:31 437.200
XW-2D 23 Aug 18:46:12 18:49:23 26° 263° (W) 18:52:37 145.860 - 145.880
DOVE 4 23 Aug 18:51:13 18:53:32 13° 268° (W) 18:55:51 437.250
XW-2A 23 Aug 18:51:56 18:53:59 16° 71° (ENE) 18:56:03 145.665 - 145.685
XW-2B 23 Aug 18:57:48 19:00:36 20° 264° (W) 19:03:26 145.730 - 145.750
STARS 23 Aug 19:03:20 19:06:58 26° 289° (WNW) 19:10:35 437.465
AAUSAT CUBESAT 2 23 Aug 19:08:58 19:11:39 17° 69° (ENE) 19:14:20 437.432
XW-2C 23 Aug 19:19:02 19:20:01 11° 267° (W) 19:21:00 145.795 - 145.815
CUTE 1.7 + AOD 2 23 Aug 19:25:37 19:29:49 71° 259° (W) 19:34:04 437.475
STRAND 1 23 Aug 19:26:53 19:31:19 29° 97° (E) 19:35:43 437.568
O/OREOS (USA 219) 23 Aug 19:40:52 19:45:14 46° 255° (WSW) 19:49:36 437.305
CUTE-I 23 Aug 19:51:11 19:53:00 12° 268° (W) 19:54:48 437.470
Oscar 11 23 Aug 19:53:59 19:57:13 21° 70° (ENE) 20:00:27 .
UWE-3 23 Aug 19:56:25 20:00:35 71° 77° (ENE) 20:04:43 435.000/436.395/437.385
SEEDS 23 Aug 20:07:30 20:11:20 35° 262° (W) 20:15:13 437.485
CUBEBUG 2 23 Aug 20:10:55 20:14:55 39° 261° (W) 20:18:52 437.445
RS-15 23 Aug 20:19:04 20:31:04 84° 62° (ENE) 20:42:22 29.354- 29.394
HO-68 23 Aug 20:20:04 20:26:10 30° 263° (W) 20:32:19 435.675
XW-2A 23 Aug 20:24:08 20:26:31 18° 264° (W) 20:28:56 145.665 - 145.685
PCSat 23 Aug 20:25:13 20:27:02 12° 103° (ESE) 20:28:51 145.827
ZACube-1 23 Aug 20:28:41 20:32:49 89° 257° (WSW) 20:36:58 437.345
AAUSAT CUBESAT 2 23 Aug 20:43:09 20:46:48 30° 263° (W) 20:50:30 437.432
AO-73 23 Aug 20:47:56 20:51:59 57° 260° (W) 20:56:03 145.935
STRAND 1 23 Aug 21:06:10 21:10:20 26° 291° (WNW) 21:14:29 437.568
EO-88 23 Aug 21:11:08 21:13:40 18° 71° (ENE) 21:16:13 145.990 - 145.960
DELFI C3 23 Aug 21:17:59 21:21:47 44° 75° (ENE) 21:25:36 145.870
Oscar 11 23 Aug 21:29:36 21:33:09 25° 264° (W) 21:36:45 .
UNISAT 6 23 Aug 21:44:17 21:47:27 19° 96° (E) 21:50:38 437.425
SO-50 23 Aug 21:44:48 21:49:09 48° 115° (ESE) 21:53:29 436.795
Max Valier Satellite 23 Aug 21:56:53 22:00:30 70° 260° (W) 22:04:09 145.860
PCSat 23 Aug 22:04:21 22:09:44 70° 296° (WNW) 22:15:10 145.827
FO-29 23 Aug 22:16:48 22:22:10 77° 285° (WNW) 22:27:19 435.910
TIGRISAT 23 Aug 22:17:31 22:21:41 44° 100° (E) 22:25:56 435.000
PRISM 23 Aug 22:23:16 22:27:01 34° 98° (E) 22:30:44 437.425
LO-87 23 Aug 22:29:44 22:32:30 21° 72° (ENE) 22:35:16 145.935 - 145.965
RS-15 23 Aug 22:34:15 22:41:51 20° 260° (W) 22:49:16 29.354- 29.394
EO-88 23 Aug 22:44:27 22:47:09 20° 264° (W) 22:49:53 145.990 - 145.960
ESTCUBE 1 23 Aug 23:00:25 23:04:34 38° 73° (ENE) 23:08:45 437.505/2401.250
UNISAT 6 23 Aug 23:20:21 23:24:06 29° 288° (WNW) 23:27:54 437.425
SO-50 23 Aug 23:27:06 23:29:50 16° 310° (NW) 23:32:34 436.795
EO-79 23 Aug 23:31:25 23:33:23 13° 94° (E) 23:35:21 145.935-145.965
QB50P2 23 Aug 23:31:35 23:33:59 15° 94° (E) 23:36:23 145.880/145.840
NO-84 23 Aug 23:42:32 23:45:36 88° 145° (SE) 23:48:31 435.350 FM
TIGRISAT 23 Aug 23:55:57 23:57:58 13° 292° (WNW) 00:00:01 435.000
DUCHIFAT 1 23 Aug 23:56:08 23:59:18 21° 96° (E) 00:02:27 145.980
PRISM 23 Aug 23:59:40 00:01:57 15° 292° (WNW) 00:04:12 437.425
LO-87 24 Aug 00:03:30 00:05:49 16° 265° (W) 00:08:09 145.935 - 145.965
SPROUT 24 Aug 00:09:47 00:13:55 54° 75° (ENE) 00:18:04 437.525
50 SAT 24 Aug 00:17:21 00:19:08 14° 70° (ENE) 00:20:56 437.505
AIST 2D 24 Aug 00:18:48 00:22:10 41° 284° (WNW) 00:25:31 435.315
DX 1 24 Aug 00:20:47 00:23:15 15° 67° (ENE) 00:25:43 434.975-435.025
VELOX 1 24 Aug 00:28:07 00:32:32 73° 76° (ENE) 00:37:00 145.980
M-CUBED/EXP-1 PRIME 24 Aug 00:31:53 00:36:04 78° 288° (WNW) 00:39:54 437.505
ESTCUBE 1 24 Aug 00:38:46 00:41:27 15° 266° (W) 00:44:08 437.505/2401.250
NANOSAT C BR1 24 Aug 00:42:13 00:46:26 86° 286° (WNW) 00:50:38 145.865
POLYITAN 1 24 Aug 00:50:20 00:54:29 60° 284° (WNW) 00:58:39 437.675
EO-79 24 Aug 01:05:20 01:09:14 38° 286° (WNW) 01:13:09 145.935-145.965
QB50P2 24 Aug 01:06:00 01:09:49 34° 287° (WNW) 01:13:38 145.880/145.840
BUGSAT 1 24 Aug 01:16:59 01:20:53 49° 100° (E) 01:24:50 437.445
UKube-1 24 Aug 01:25:48 01:30:01 55° 75° (ENE) 01:34:15 .
DUCHIFAT 1 24 Aug 01:31:28 01:34:51 24° 289° (WNW) 01:38:15 145.980
50 SAT 24 Aug 01:48:47 01:51:32 23° 263° (W) 01:54:19 437.505
DX 1 24 Aug 01:54:57 01:59:03 39° 261° (W) 02:03:10 434.975-435.025
ITUPSAT 1 24 Aug 02:16:45 02:20:11 20° 68° (ENE) 02:23:36 437.325
Oscar 19 24 Aug 02:25:55 02:31:07 73° 285° (WNW) 02:36:16 437.125/150
Gurwin Techsat 1B 24 Aug 02:28:03 02:33:22 74° 102° (ESE) 02:38:40 435.225
MOZHAYETS 4 24 Aug 02:29:39 02:33:08 22° 70° (ENE) 02:36:38
YUBILEINY 24 Aug 02:36:07 02:44:37 55° 80° (E) 02:53:02 435.215
AO-7 24 Aug 02:43:33 02:48:10 16° 94° (E) 02:52:45 .
BEESAT 3 24 Aug 02:55:04 02:56:55 13° 108° (ESE) 02:58:47 437.485
BEESAT 24 Aug 03:16:02 03:20:47 86° 260° (W) 03:25:33 436.000
AO-85 24 Aug 03:16:52 03:18:35 12° 109° (ESE) 03:20:16 145.980
KKS-1 24 Aug 03:52:27 03:54:50 14° 67° (ENE) 03:57:11 437.445
ITAMSAT 1 24 Aug 03:53:24 03:58:24 47° 100° (E) 04:03:21 435.822/435.867
ITUPSAT 1 24 Aug 03:53:27 03:57:43 33° 262° (W) 04:02:01 437.325
MOZHAYETS 4 24 Aug 04:06:15 04:10:05 27° 263° (W) 04:13:58
Gurwin Techsat 1B 24 Aug 04:10:53 04:12:37 12° 297° (WNW) 04:14:19 435.225
STARS 24 Aug 04:21:37 04:23:00 11° 66° (ENE) 04:24:23 437.465
BEESAT 3 24 Aug 04:30:20 04:34:04 39° 302° (WNW) 04:37:52 437.485
AO-7 24 Aug 04:33:17 04:41:38 84° 288° (WNW) 04:49:55 .
YUBILEINY 24 Aug 04:34:00 04:40:46 26° 276° (W) 04:47:34 435.215
CUBESAT XI-V 24 Aug 04:34:52 04:39:30 76° 258° (WSW) 04:44:12 437.345
BEESAT 2 24 Aug 04:52:21 04:56:19 77° 299° (WNW) 05:00:21 435.950
AO-85 24 Aug 04:54:54 04:58:35 37° 302° (WNW) 05:02:14 145.980
DOVE 4 24 Aug 05:15:20 05:18:31 20° 94° (E) 05:21:36 437.250
KKS-1 24 Aug 05:26:43 05:30:57 42° 260° (W) 05:35:13 437.445
ITAMSAT 1 24 Aug 05:34:09 05:37:25 17° 294° (WNW) 05:40:40 435.822/435.867
STARS 24 Aug 05:54:32 05:58:50 52° 260° (W) 06:03:08 437.465
NUDT-PHONESAT 24 Aug 06:14:11 06:17:00 20° 96° (E) 06:19:47 437.300
SO-50 24 Aug 06:21:20 06:23:55 15° 50° (NE) 06:26:30 436.795
XW-2D 24 Aug 06:22:21 06:25:59 39° 99° (E) 06:29:35 145.860 - 145.880
LilacSat-2 24 Aug 06:22:55 06:26:37 41° 99° (E) 06:30:17 437.200
Tancredo 1 24 Aug 06:24:10 06:26:13 18° 129° (SE) 06:28:16 437.200
